| time (UTC) | temp F | wind direction | speed MPH | gust MPH | rain 1hr in | rain 24hr in | rain mn in | humidity % | barometer mb |
| 20260507092545 | 57 | 163 | 2.0 | 8.0 | 0.00 | 0.00 | 0.00 | 63 | 1010.9 |
| 20260507092043 | 58 | 191 | 3.0 | 7.0 | 0.00 | 0.00 | 0.00 | 63 | 1010.9 |
| 20260507091552 | 58 | 116 | 1.0 | 7.0 | 0.00 | 0.00 | 0.00 | 63 | 1011.0 |
| 20260507091045 | 58 | 205 | 2.0 | 9.0 | 0.00 | 0.00 | 0.00 | 61 | 1010.9 |
| 20260507090543 | 58 | 66 | 1.0 | 9.0 | 0.00 | 0.00 | 0.00 | 62 | 1010.9 |
| 20260507090100 | 58 | 1 | 3.0 | 11.0 | 0.00 | 0.00 | 0.00 | 61 | 1010.9 |
| 20260507085544 | 58 | 114 | 4.0 | 11.0 | 0.00 | 0.00 | 0.00 | 63 | 1010.9 |
| 20260507085043 | 58 | 12 | 7.0 | 11.0 | 0.00 | 0.00 | 0.00 | 62 | 1010.9 |
| 20260507084556 | 57 | 0 | 2.0 | 8.0 | 0.00 | 0.00 | 0.00 | 64 | 1010.9 |
| 20260507084042 | 56 | 70 | 3.0 | 7.0 | 0.00 | 0.00 | 0.00 | 65 | 1010.9 |
| 20260507083544 | 57 | 81 | 0.0 | 6.0 | 0.00 | 0.00 | 0.00 | 65 | 1011.0 |
| 20260507083058 | 56 | 134 | 2.0 | 9.0 | 0.00 | 0.00 | 0.00 | 65 | 1010.9 |
| 20260507082544 | 56 | 55 | 3.0 | 9.0 | 0.00 | 0.00 | 0.00 | 67 | 1010.9 |
| 20260507082044 | 55 | 7 | 4.0 | 8.0 | 0.00 | 0.00 | 0.00 | 67 | 1010.9 |
| 20260507081556 | 55 | 62 | 2.0 | 6.0 | 0.00 | 0.00 | 0.00 | 67 | 1011.0 |
| 20260507081045 | 55 | 118 | 1.0 | 7.0 | 0.00 | 0.00 | 0.00 | 67 | 1011.0 |
| 20260507080544 | 55 | 39 | 3.0 | 7.0 | 0.00 | 0.00 | 0.00 | 67 | 1010.9 |
| 20260507075545 | 55 | 70 | 3.0 | 5.0 | 0.00 | 0.00 | 0.00 | 67 | 1010.9 |
| 20260507075045 | 55 | 338 | 2.0 | 9.0 | 0.00 | 0.00 | 0.00 | 68 | 1010.9 |
| 20260507074550 | 54 | 28 | 1.0 | 9.0 | 0.00 | 0.00 | 0.00 | 68 | 1010.7 |
| 20260507074042 | 54 | 64 | 4.0 | 9.0 | 0.00 | 0.00 | 0.00 | 68 | 1010.7 |
| 20260507073548 | 54 | 16 | 2.0 | 10.0 | 0.00 | 0.00 | 0.00 | 68 | 1010.7 |
| 20260507073051 | 54 | 76 | 3.0 | 10.0 | 0.00 | 0.00 | 0.00 | 68 | 1010.7 |
| 20260507072544 | 54 | 37 | 1.0 | 6.0 | 0.00 | 0.00 | 0.00 | 68 | 1010.7 |
| 20260507072045 | 54 | 36 | 2.0 | 6.0 | 0.00 | 0.00 | 0.00 | 68 | 1010.8 |
| 20260507071553 | 54 | 22 | 1.0 | 4.0 | 0.00 | 0.00 | 0.00 | 68 | 1010.8 |
| 20260507071044 | 54 | 26 | 0.0 | 5.0 | 0.00 | 0.00 | 0.00 | 68 | 1010.8 |
| 20260507070541 | 54 | 63 | 0.0 | 5.0 | 0.00 | 0.00 | 0.00 | 68 | 1010.8 |
| 20260507070058 | 54 | 0 | 2.0 | 6.0 | 0.00 | 0.00 | 0.00 | 68 | 1010.8 |
| 20260507065547 | 54 | 84 | 0.0 | 6.0 | 0.00 | 0.00 | 0.00 | 68 | 1010.7 |
| 20260507065044 | 54 | 78 | 2.0 | 6.0 | 0.00 | 0.00 | 0.00 | 68 | 1010.7 |
| 20260507064623 | 54 | 0 | 1.0 | 6.0 | 0.00 | 0.00 | 0.00 | 68 | 1010.7 |
| 20260507064044 | 54 | 3 | 2.0 | 6.0 | 0.00 | 0.00 | 0.00 | 68 | 1010.4 |
| 20260507063544 | 54 | 109 | 1.0 | 5.0 | 0.00 | 0.00 | 0.00 | 68 | 1010.4 |
| 20260507063053 | 53 | 12 | 1.0 | 5.0 | 0.00 | 0.00 | 0.00 | 68 | 1010.3 |
| 20260507062543 | 53 | 107 | 1.0 | 5.0 | 0.00 | 0.00 | 0.00 | 68 | 1010.4 |
| 20260507062043 | 53 | 40 | 1.0 | 4.0 | 0.00 | 0.00 | 0.00 | 69 | 1010.3 |
| 20260507061549 | 53 | 1 | 1.0 | 5.0 | 0.00 | 0.00 | 0.00 | 69 | 1010.2 |
| 20260507061044 | 53 | 0 | 2.0 | 6.0 | 0.00 | 0.00 | 0.00 | 69 | 1010.3 |
| 20260507060542 | 53 | 110 | 0.0 | 7.0 | 0.00 | 0.00 | 0.00 | 69 | 1010.3 |
| 20260507060109 | 53 | 54 | 2.0 | 7.0 | 0.00 | 0.00 | 0.00 | 69 | 1010.3 |
| 20260507055547 | 53 | 49 | 2.0 | 7.0 | 0.00 | 0.00 | 0.00 | 69 | 1010.2 |
| 20260507055047 | 53 | 0 | 2.0 | 7.0 | 0.00 | 0.00 | 0.00 | 69 | 1010.0 |
| 20260507054552 | 53 | 50 | 1.0 | 6.0 | 0.00 | 0.00 | 0.00 | 69 | 1010.0 |
| 20260507054045 | 53 | 66 | 2.0 | 8.0 | 0.00 | 0.00 | 0.00 | 69 | 1009.9 |
| 20260507053548 | 53 | 138 | 2.0 | 10.0 | 0.00 | 0.00 | 0.00 | 69 | 1010.0 |
| 20260507053048 | 52 | 84 | 3.0 | 10.0 | 0.00 | 0.00 | 0.00 | 69 | 1010.0 |
| 20260507052547 | 52 | 88 | 2.0 | 8.0 | 0.00 | 0.00 | 0.00 | 69 | 1009.9 |
| 20260507052044 | 52 | 99 | 3.0 | 8.0 | 0.00 | 0.00 | 0.00 | 69 | 1009.9 |
| 20260507051605 | 53 | 67 | 3.0 | 8.0 | 0.00 | 0.00 | 0.00 | 69 | 1010.0 |
| 20260507051045 | 53 | 82 | 2.0 | 9.0 | 0.00 | 0.00 | 0.00 | 69 | 1009.9 |
| 20260507050549 | 53 | 0 | 2.0 | 9.0 | 0.00 | 0.00 | 0.00 | 69 | 1009.9 |
| 20260507050051 | 53 | 0 | 1.0 | 9.0 | 0.00 | 0.00 | 0.00 | 69 | 1009.9 |
| 20260507045548 | 53 | 59 | 1.0 | 9.0 | 0.00 | 0.00 | 0.00 | 69 | 1009.8 |
| 20260507045048 | 53 | 75 | 3.0 | 9.0 | 0.00 | 0.00 | 0.00 | 69 | 1009.9 |
| 20260507044556 | 53 | 20 | 2.0 | 9.0 | 0.00 | 0.00 | 0.00 | 69 | 1009.9 |
| 20260507044051 | 53 | 8 | 1.0 | 9.0 | 0.00 | 0.00 | 0.00 | 69 | 1009.9 |
| 20260507043547 | 53 | 83 | 3.0 | 7.0 | 0.00 | 0.00 | 0.00 | 69 | 1009.9 |
| 20260507043055 | 52 | 57 | 2.0 | 7.0 | 0.00 | 0.00 | 0.00 | 69 | 1009.9 |
| 20260507042547 | 52 | 0 | 3.0 | 7.0 | 0.00 | 0.00 | 0.00 | 69 | 1009.9 |
| 20260507042047 | 52 | 0 | 1.0 | 12.0 | 0.00 | 0.00 | 0.00 | 68 | 1009.9 |
| 20260507041550 | 52 | 63 | 3.0 | 12.0 | 0.00 | 0.00 | 0.00 | 68 | 1009.9 |
| 20260507041047 | 52 | 77 | 1.0 | 10.0 | 0.00 | 0.00 | 0.00 | 68 | 1009.9 |
| 20260507040547 | 53 | 57 | 1.0 | 8.0 | 0.00 | 0.00 | 0.00 | 68 | 1009.9 |
| 20260507040052 | 52 | 93 | 2.0 | 9.0 | 0.00 | 0.00 | 0.00 | 68 | 1009.9 |
| 20260507035547 | 52 | 32 | 2.0 | 9.0 | 0.00 | 0.00 | 0.00 | 68 | 1009.9 |
| 20260507035047 | 53 | 12 | 2.0 | 9.0 | 0.00 | 0.00 | 0.00 | 67 | 1010.0 |
| 20260507034555 | 53 | 38 | 2.0 | 9.0 | 0.00 | 0.00 | 0.00 | 67 | 1010.0 |
| 20260507034048 | 53 | 0 | 1.0 | 7.0 | 0.00 | 0.00 | 0.00 | 66 | 1010.0 |
| 20260507033548 | 53 | 60 | 1.0 | 7.0 | 0.00 | 0.00 | 0.00 | 66 | 1010.0 |
| 20260507033052 | 53 | 72 | 2.0 | 10.0 | 0.00 | 0.00 | 0.00 | 66 | 1009.9 |
| 20260507032548 | 53 | 55 | 2.0 | 10.0 | 0.00 | 0.00 | 0.00 | 66 | 1009.9 |
| 20260507032047 | 53 | 128 | 2.0 | 6.0 | 0.00 | 0.00 | 0.00 | 65 | 1009.9 |
| 20260507031550 | 53 | 16 | 1.0 | 8.0 | 0.00 | 0.00 | 0.00 | 65 | 1009.8 |
| 20260507031049 | 53 | 346 | 3.0 | 9.0 | 0.00 | 0.00 | 0.00 | 65 | 1009.9 |
| 20260507030548 | 53 | 51 | 4.0 | 9.0 | 0.00 | 0.00 | 0.00 | 65 | 1009.9 |
| 20260507030054 | 53 | 21 | 3.0 | 7.0 | 0.00 | 0.00 | 0.00 | 64 | 1009.9 |
| 20260507025546 | 53 | 11 | 1.0 | 8.0 | 0.00 | 0.00 | 0.00 | 64 | 1009.9 |
| 20260507025048 | 53 | 0 | 1.0 | 8.0 | 0.00 | 0.00 | 0.00 | 64 | 1010.0 |
| 20260507024555 | 54 | 88 | 1.0 | 6.0 | 0.00 | 0.00 | 0.00 | 64 | 1009.9 |
| 20260507024046 | 54 | 66 | 2.0 | 4.0 | 0.00 | 0.00 | 0.00 | 63 | 1009.8 |
| 20260507023542 | 54 | 0 | 0.0 | 5.0 | 0.00 | 0.00 | 0.00 | 63 | 1009.9 |
| 20260507023054 | 54 | 0 | 1.0 | 5.0 | 0.00 | 0.00 | 0.00 | 63 | 1009.9 |
| 20260507022545 | 54 | 0 | 2.0 | 5.0 | 0.00 | 0.00 | 0.00 | 62 | 1010.0 |
| 20260507022044 | 54 | 18 | 1.0 | 5.0 | 0.00 | 0.00 | 0.00 | 62 | 1010.0 |
| 20260507021551 | 54 | 109 | 2.0 | 5.0 | 0.00 | 0.00 | 0.00 | 62 | 1010.0 |
| 20260507021045 | 54 | 0 | 3.0 | 7.0 | 0.00 | 0.00 | 0.00 | 61 | 1009.9 |
| 20260507020545 | 54 | 0 | 2.0 | 7.0 | 0.00 | 0.00 | 0.00 | 61 | 1010.0 |
| 20260507015545 | 54 | 67 | 2.0 | 6.0 | 0.00 | 0.00 | 0.00 | 59 | 1009.9 |
| 20260507015045 | 54 | 75 | 1.0 | 6.0 | 0.00 | 0.00 | 0.00 | 59 | 1009.9 |
| 20260507014559 | 54 | 4 | 0.0 | 6.0 | 0.00 | 0.00 | 0.00 | 59 | 1009.9 |
| 20260507014045 | 54 | 0 | 1.0 | 5.0 | 0.00 | 0.00 | 0.00 | 59 | 1009.8 |
| 20260507013545 | 54 | 29 | 1.0 | 5.0 | 0.00 | 0.00 | 0.00 | 58 | 1009.9 |
| 20260507013047 | 54 | 98 | 1.0 | 5.0 | 0.00 | 0.00 | 0.00 | 59 | 1009.9 |
| 20260507012544 | 54 | 136 | 1.0 | 5.0 | 0.00 | 0.00 | 0.00 | 58 | 1009.9 |
| 20260507012044 | 54 | 151 | 1.0 | 5.0 | 0.00 | 0.00 | 0.00 | 58 | 1010.0 |
| 20260507011552 | 54 | 65 | 1.0 | 8.0 | 0.00 | 0.00 | 0.00 | 58 | 1010.0 |
| 20260507011044 | 54 | 168 | 2.0 | 8.0 | 0.00 | 0.00 | 0.00 | 58 | 1010.0 |
| 20260507010544 | 54 | 107 | 2.0 | 9.0 | 0.00 | 0.00 | 0.00 | 58 | 1010.1 |
| 20260507010059 | 54 | 291 | 3.0 | 9.0 | 0.00 | 0.00 | 0.00 | 57 | 1010.0 |
| 20260507005545 | 54 | 148 | 1.0 | 9.0 | 0.00 | 0.00 | 0.00 | 57 | 1010.0 |
| 20260507005045 | 54 | 45 | 4.0 | 9.0 | 0.00 | 0.00 | 0.00 | 56 | 1010.1 |
| 20260507004550 | 55 | 54 | 2.0 | 9.0 | 0.00 | 0.00 | 0.00 | 56 | 1010.2 |
| 20260507004045 | 55 | 13 | 2.0 | 9.0 | 0.00 | 0.00 | 0.00 | 55 | 1010.1 |
| 20260507003545 | 55 | 111 | 2.0 | 10.0 | 0.00 | 0.00 | 0.00 | 55 | 1010.2 |
| 20260507003051 | 55 | 226 | 2.0 | 10.0 | 0.00 | 0.00 | 0.00 | 54 | 1010.2 |
| 20260507002545 | 55 | 0 | 4.0 | 9.0 | 0.00 | 0.00 | 0.00 | 53 | 1010.2 |
| 20260507002045 | 56 | 64 | 3.0 | 8.0 | 0.00 | 0.00 | 0.00 | 52 | 1010.1 |
| 20260507001556 | 56 | 118 | 2.0 | 7.0 | 0.00 | 0.00 | 0.00 | 52 | 1010.2 |
| 20260507001044 | 56 | 49 | 1.0 | 9.0 | 0.00 | 0.00 | 0.00 | 51 | 1010.0 |
| 20260507000546 | 56 | 103 | 2.0 | 10.0 | 0.00 | 0.00 | 0.00 | 50 | 1010.0 |
| 20260507000051 | 56 | 46 | 3.0 | 10.0 | 0.00 | 0.00 | 0.00 | 49 | 1010.1 |
| 20260506235544 | 57 | 117 | 3.0 | 10.0 | 0.00 | 0.00 | 0.00 | 49 | 1009.9 |
| 20260506235047 | 57 | 34 | 2.0 | 9.0 | 0.00 | 0.00 | 0.00 | 48 | 1009.9 |
| 20260506234550 | 57 | 151 | 3.0 | 9.0 | 0.00 | 0.00 | 0.00 | 47 | 1009.9 |
| 20260506234045 | 57 | 134 | 3.0 | 9.0 | 0.00 | 0.00 | 0.00 | 45 | 1009.9 |
| 20260506233545 | 57 | 97 | 3.0 | 9.0 | 0.00 | 0.00 | 0.00 | 45 | 1009.9 |
| 20260506233052 | 58 | 80 | 2.0 | 9.0 | 0.00 | 0.00 | 0.00 | 43 | 1009.9 |
| 20260506232544 | 58 | 62 | 3.0 | 9.0 | 0.00 | 0.00 | 0.00 | 42 | 1009.9 |
| 20260506232043 | 58 | 26 | 2.0 | 9.0 | 0.00 | 0.00 | 0.00 | 42 | 1009.8 |
| 20260506231608 | 58 | 35 | 2.0 | 9.0 | 0.00 | 0.00 | 0.00 | 41 | 1009.8 |
| 20260506231042 | 59 | 41 | 1.0 | 9.0 | 0.00 | 0.00 | 0.00 | 40 | 1009.8 |
| 20260506230543 | 59 | 31 | 2.0 | 9.0 | 0.00 | 0.00 | 0.00 | 39 | 1009.9 |
| 20260506230116 | 59 | 42 | 2.0 | 7.0 | 0.00 | 0.00 | 0.00 | 38 | 1009.8 |
| 20260506225545 | 59 | 71 | 1.0 | 4.0 | 0.00 | 0.00 | 0.00 | 37 | 1009.8 |
| 20260506225043 | 60 | 55 | 1.0 | 4.0 | 0.00 | 0.00 | 0.00 | 36 | 1009.8 |
| 20260506224603 | 60 | 112 | 0.0 | 4.0 | 0.00 | 0.00 | 0.00 | 36 | 1009.8 |
| 20260506224042 | 60 | 87 | 0.0 | 6.0 | 0.00 | 0.00 | 0.00 | 35 | 1009.8 |
| 20260506223545 | 60 | 0 | 1.0 | 6.0 | 0.00 | 0.00 | 0.00 | 34 | 1009.8 |
| 20260506223057 | 60 | 0 | 0.0 | 4.0 | 0.00 | 0.00 | 0.00 | 34 | 1009.8 |
| 20260506222543 | 61 | 161 | 2.0 | 4.0 | 0.00 | 0.00 | 0.00 | 33 | 1009.8 |
| 20260506222046 | 61 | 157 | 1.0 | 4.0 | 0.00 | 0.00 | 0.00 | 32 | 1009.7 |
| 20260506221610 | 61 | 116 | 0.0 | 4.0 | 0.00 | 0.00 | 0.00 | 32 | 1009.8 |
| 20260506221043 | 61 | 0 | 1.0 | 4.0 | 0.00 | 0.00 | 0.00 | 32 | 1009.8 |
| 20260506220546 | 61 | 78 | 1.0 | 3.0 | 0.00 | 0.00 | 0.00 | 32 | 1009.8 |
| 20260506220108 | 61 | 103 | 0.0 | 3.0 | 0.00 | 0.00 | 0.00 | 33 | 1009.8 |
| 20260506215544 | 61 | 85 | 0.0 | 3.0 | 0.00 | 0.00 | 0.00 | 33 | 1009.8 |
| 20260506215044 | 61 | 110 | 0.0 | 2.0 | 0.00 | 0.00 | 0.00 | 33 | 1009.8 |
| 20260506214553 | 61 | 95 | 0.0 | 3.0 | 0.00 | 0.00 | 0.00 | 33 | 1009.9 |
| 20260506214044 | 61 | 0 | 1.0 | 3.0 | 0.00 | 0.00 | 0.00 | 33 | 1009.8 |
| 20260506213543 | 62 | 0 | 0.0 | 2.0 | 0.00 | 0.00 | 0.00 | 33 | 1009.9 |
| 20260506213110 | 62 | 0 | 0.0 | 2.0 | 0.00 | 0.00 | 0.00 | 33 | 1009.9 |
| 20260506212545 | 62 | 0 | 0.0 | 2.0 | 0.00 | 0.00 | 0.00 | 33 | 1009.9 |
| 20260506212044 | 62 | 84 | 0.0 | 2.0 | 0.00 | 0.00 | 0.00 | 32 | 1009.9 |
| 20260506211550 | 62 | 84 | 0.0 | 3.0 | 0.00 | 0.00 | 0.00 | 32 | 1009.9 |
| 20260506211044 | 62 | 0 | 0.0 | 3.0 | 0.00 | 0.00 | 0.00 | 32 | 1009.9 |
| 20260506210544 | 62 | 84 | 0.0 | 3.0 | 0.00 | 0.00 | 0.00 | 32 | 1009.9 |
| 20260506210104 | 62 | 0 | 0.0 | 2.0 | 0.00 | 0.00 | 0.00 | 31 | 1009.9 |
| 20260506205542 | 62 | 118 | 0.0 | 2.0 | 0.00 | 0.00 | 0.00 | 31 | 1009.9 |
| 20260506205042 | 62 | 0 | 0.0 | 2.0 | 0.00 | 0.00 | 0.00 | 31 | 1009.9 |
| 20260506204601 | 62 | 0 | 0.0 | 2.0 | 0.00 | 0.00 | 0.00 | 30 | 1009.9 |
| 20260506204041 | 62 | 0 | 0.0 | 2.0 | 0.00 | 0.00 | 0.00 | 30 | 1009.9 |
| 20260506203545 | 62 | 61 | 0.0 | 2.0 | 0.00 | 0.00 | 0.00 | 30 | 1009.8 |
| 20260506203052 | 62 | 0 | 0.0 | 2.0 | 0.00 | 0.00 | 0.00 | 31 | 1009.8 |
| 20260506202544 | 63 | 0 | 0.0 | 2.0 | 0.00 | 0.00 | 0.00 | 30 | 1009.8 |
| 20260506202041 | 63 | 0 | 0.0 | 3.0 | 0.00 | 0.00 | 0.00 | 29 | 1009.7 |
| 20260506201555 | 63 | 0 | 0.0 | 3.0 | 0.00 | 0.00 | 0.00 | 29 | 1009.7 |
| 20260506201048 | 63 | 0 | 0.0 | 3.0 | 0.00 | 0.00 | 0.00 | 28 | 1009.7 |
| 20260506200546 | 63 | 0 | 0.0 | 2.0 | 0.00 | 0.00 | 0.00 | 28 | 1009.7 |
| 20260506200058 | 63 | 93 | 0.0 | 2.0 | 0.00 | 0.00 | 0.00 | 28 | 1009.7 |
| 20260506195548 | 63 | 0 | 0.0 | 2.0 | 0.00 | 0.00 | 0.00 | 27 | 1009.7 |
| 20260506195045 | 63 | 0 | 0.0 | 2.0 | 0.00 | 0.00 | 0.00 | 27 | 1009.5 |
| 20260506194553 | 63 | 0 | 0.0 | 2.0 | 0.00 | 0.00 | 0.00 | 27 | 1009.5 |
| 20260506194046 | 63 | 0 | 0.0 | 3.0 | 0.00 | 0.00 | 0.00 | 28 | 1009.5 |
| 20260506193542 | 63 | 39 | 0.0 | 3.0 | 0.00 | 0.00 | 0.00 | 27 | 1009.5 |
| 20260506193052 | 63 | 46 | 1.0 | 3.0 | 0.00 | 0.00 | 0.00 | 27 | 1009.4 |
| 20260506192545 | 64 | 46 | 0.0 | 2.0 | 0.00 | 0.00 | 0.00 | 28 | 1009.5 |
| 20260506192045 | 64 | 155 | 0.0 | 2.0 | 0.00 | 0.00 | 0.00 | 28 | 1009.5 |
| 20260506191552 | 64 | 0 | 0.0 | 2.0 | 0.00 | 0.00 | 0.00 | 28 | 1009.5 |
| 20260506191045 | 64 | 155 | 0.0 | 5.0 | 0.00 | 0.00 | 0.00 | 28 | 1009.4 |
| 20260506190547 | 64 | 0 | 2.0 | 5.0 | 0.00 | 0.00 | 0.00 | 26 | 1009.4 |
| 20260506190051 | 64 | 14 | 1.0 | 2.0 | 0.00 | 0.00 | 0.00 | 26 | 1009.4 |
| 20260506185544 | 64 | 0 | 0.0 | 3.0 | 0.00 | 0.00 | 0.00 | 26 | 1009.4 |
| 20260506185045 | 64 | 0 | 0.0 | 3.0 | 0.00 | 0.00 | 0.00 | 26 | 1009.3 |
| 20260506184613 | 64 | 148 | 1.0 | 4.0 | 0.00 | 0.00 | 0.00 | 26 | 1009.4 |
| 20260506184045 | 64 | 179 | 2.0 | 4.0 | 0.00 | 0.00 | 0.00 | 25 | 1009.3 |
| 20260506183549 | 64 | 206 | 1.0 | 4.0 | 0.00 | 0.00 | 0.00 | 25 | 1009.3 |
| 20260506183055 | 65 | 149 | 0.0 | 2.0 | 0.00 | 0.00 | 0.00 | 25 | 1009.3 |
| 20260506182545 | 65 | 137 | 0.0 | 4.0 | 0.00 | 0.00 | 0.00 | 26 | 1009.3 |
| 20260506182042 | 65 | 137 | 1.0 | 4.0 | 0.00 | 0.00 | 0.00 | 26 | 1009.4 |
| 20260506181552 | 65 | 184 | 1.0 | 3.0 | 0.00 | 0.00 | 0.00 | 25 | 1009.3 |
| 20260506181045 | 65 | 167 | 1.0 | 4.0 | 0.00 | 0.00 | 0.00 | 25 | 1009.3 |
| 20260506180545 | 65 | 100 | 0.0 | 4.0 | 0.00 | 0.00 | 0.00 | 25 | 1009.4 |
| 20260506180056 | 65 | 176 | 1.0 | 5.0 | 0.00 | 0.00 | 0.00 | 26 | 1009.3 |
| 20260506175544 | 65 | 142 | 1.0 | 5.0 | 0.00 | 0.00 | 0.00 | 26 | 1009.3 |
| 20260506175047 | 65 | 49 | 1.0 | 6.0 | 0.00 | 0.00 | 0.00 | 26 | 1009.4 |
| 20260506174552 | 66 | 159 | 1.0 | 6.0 | 0.00 | 0.00 | 0.00 | 26 | 1009.4 |
| 20260506174043 | 66 | 126 | 2.0 | 7.0 | 0.00 | 0.00 | 0.00 | 26 | 1009.4 |
| 20260506173544 | 66 | 1 | 2.0 | 7.0 | 0.00 | 0.00 | 0.00 | 26 | 1009.4 |
| 20260506173056 | 66 | 0 | 2.0 | 7.0 | 0.00 | 0.00 | 0.00 | 27 | 1009.5 |
| 20260506172543 | 66 | 120 | 2.0 | 7.0 | 0.00 | 0.00 | 0.00 | 27 | 1009.5 |
| 20260506172047 | 65 | 128 | 2.0 | 6.0 | 0.00 | 0.00 | 0.00 | 27 | 1009.4 |
| 20260506171607 | 66 | 169 | 2.0 | 7.0 | 0.00 | 0.00 | 0.00 | 27 | 1009.5 |
| 20260506171043 | 65 | 109 | 3.0 | 9.0 | 0.00 | 0.00 | 0.00 | 28 | 1009.5 |
| 20260506170544 | 65 | 218 | 4.0 | 9.0 | 0.00 | 0.00 | 0.00 | 28 | 1009.5 |
| 20260506170056 | 65 | 172 | 5.0 | 9.0 | 0.00 | 0.00 | 0.00 | 27 | 1009.4 |
| 20260506165543 | 66 | 172 | 3.0 | 7.0 | 0.00 | 0.00 | 0.00 | 26 | 1009.6 |
| 20260506165043 | 66 | 351 | 1.0 | 6.0 | 0.00 | 0.00 | 0.00 | 28 | 1009.5 |
| 20260506164552 | 65 | 199 | 1.0 | 10.0 | 0.00 | 0.00 | 0.00 | 28 | 1009.7 |
| 20260506164042 | 65 | 204 | 3.0 | 10.0 | 0.00 | 0.00 | 0.00 | 28 | 1009.7 |
| 20260506163542 | 65 | 174 | 2.0 | 7.0 | 0.00 | 0.00 | 0.00 | 28 | 1009.7 |
| 20260506163052 | 65 | 253 | 2.0 | 7.0 | 0.00 | 0.00 | 0.00 | 28 | 1009.7 |
| 20260506162544 | 65 | 217 | 3.0 | 7.0 | 0.00 | 0.00 | 0.00 | 27 | 1009.7 |
| 20260506162044 | 65 | 155 | 3.0 | 7.0 | 0.00 | 0.00 | 0.00 | 28 | 1009.8 |
| 20260506161549 | 66 | 0 | 2.0 | 5.0 | 0.00 | 0.00 | 0.00 | 27 | 1009.7 |
| 20260506161041 | 67 | 8 | 1.0 | 4.0 | 0.00 | 0.00 | 0.00 | 27 | 1009.7 |
| 20260506160543 | 68 | 243 | 0.0 | 4.0 | 0.00 | 0.00 | 0.00 | 26 | 1009.8 |
| 20260506155542 | 66 | 266 | 1.0 | 7.0 | 0.00 | 0.00 | 0.00 | 28 | 1009.8 |
| 20260506155043 | 65 | 265 | 1.0 | 7.0 | 0.00 | 0.00 | 0.00 | 28 | 1009.8 |
| 20260506154553 | 65 | 236 | 1.0 | 6.0 | 0.00 | 0.00 | 0.00 | 28 | 1009.9 |
| 20260506154046 | 65 | 156 | 1.0 | 6.0 | 0.00 | 0.00 | 0.00 | 30 | 1009.9 |
| 20260506153545 | 65 | 0 | 2.0 | 7.0 | 0.00 | 0.00 | 0.00 | 30 | 1009.9 |
| 20260506153055 | 64 | 71 | 2.0 | 7.0 | 0.00 | 0.00 | 0.00 | 30 | 1009.9 |
| 20260506152544 | 65 | 147 | 2.0 | 5.0 | 0.00 | 0.00 | 0.00 | 30 | 1010.0 |
| 20260506152045 | 65 | 194 | 2.0 | 9.0 | 0.00 | 0.00 | 0.00 | 31 | 1010.0 |
| 20260506151551 | 65 | 192 | 3.0 | 9.0 | 0.00 | 0.00 | 0.00 | 31 | 1010.0 |
| 20260506151042 | 65 | 0 | 2.0 | 9.0 | 0.00 | 0.00 | 0.00 | 31 | 1010.1 |
| 20260506150543 | 65 | 168 | 4.0 | 8.0 | 0.00 | 0.00 | 0.00 | 30 | 1010.2 |
| 20260506150053 | 66 | 204 | 0.0 | 2.0 | 0.00 | 0.00 | 0.00 | 28 | 1010.2 |
| 20260506145545 | 65 | 259 | 0.0 | 8.0 | 0.00 | 0.00 | 0.00 | 31 | 1010.3 |
| 20260506145045 | 64 | 273 | 2.0 | 8.0 | 0.00 | 0.00 | 0.00 | 31 | 1010.4 |
| 20260506144602 | 63 | 135 | 2.0 | 7.0 | 0.00 | 0.00 | 0.00 | 33 | 1010.4 |
| 20260506144045 | 64 | 180 | 3.0 | 7.0 | 0.00 | 0.00 | 0.00 | 32 | 1010.5 |
| 20260506143545 | 64 | 147 | 1.0 | 6.0 | 0.00 | 0.00 | 0.00 | 33 | 1010.6 |
| 20260506143051 | 64 | 230 | 1.0 | 6.0 | 0.00 | 0.00 | 0.00 | 33 | 1010.7 |
| 20260506142545 | 63 | 14 | 2.0 | 7.0 | 0.00 | 0.00 | 0.00 | 33 | 1010.7 |
| 20260506142042 | 63 | 12 | 4.0 | 7.0 | 0.00 | 0.00 | 0.00 | 32 | 1010.8 |
| 20260506141549 | 65 | 5 | 2.0 | 5.0 | 0.00 | 0.00 | 0.00 | 32 | 1010.8 |
| 20260506141045 | 66 | 224 | 1.0 | 5.0 | 0.00 | 0.00 | 0.00 | 32 | 1010.9 |
| 20260506140545 | 67 | 132 | 1.0 | 7.0 | 0.00 | 0.00 | 0.00 | 31 | 1010.9 |
| 20260506140053 | 65 | 307 | 2.0 | 7.0 | 0.00 | 0.00 | 0.00 | 34 | 1010.9 |
| 20260506135542 | 66 | 213 | 1.0 | 4.0 | 0.00 | 0.00 | 0.00 | 32 | 1011.0 |
| 20260506135043 | 66 | 240 | 1.0 | 4.0 | 0.00 | 0.00 | 0.00 | 33 | 1011.0 |
| 20260506134552 | 66 | 259 | 0.0 | 6.0 | 0.00 | 0.00 | 0.00 | 33 | 1011.0 |
| 20260506134043 | 64 | 262 | 1.0 | 6.0 | 0.00 | 0.00 | 0.00 | 35 | 1011.1 |
| 20260506133542 | 63 | 213 | 3.0 | 6.0 | 0.00 | 0.00 | 0.00 | 36 | 1011.2 |
| 20260506133052 | 62 | 225 | 2.0 | 5.0 | 0.00 | 0.00 | 0.00 | 36 | 1011.2 |
| 20260506132545 | 62 | 183 | 1.0 | 4.0 | 0.00 | 0.00 | 0.00 | 36 | 1011.3 |
| 20260506132044 | 62 | 351 | 0.0 | 4.0 | 0.00 | 0.00 | 0.00 | 37 | 1011.3 |
| 20260506131612 | 62 | 101 | 1.0 | 5.0 | 0.00 | 0.00 | 0.00 | 37 | 1011.3 |
| 20260506131045 | 62 | 0 | 1.0 | 5.0 | 0.00 | 0.00 | 0.00 | 37 | 1011.3 |
| 20260506130544 | 63 | 331 | 1.0 | 5.0 | 0.00 | 0.00 | 0.00 | 36 | 1011.3 |
| 20260506130055 | 61 | 0 | 0.0 | 4.0 | 0.00 | 0.00 | 0.00 | 39 | 1011.4 |
| 20260506125545 | 60 | 357 | 1.0 | 5.0 | 0.00 | 0.00 | 0.00 | 40 | 1011.5 |
| 20260506125044 | 60 | 323 | 2.0 | 5.0 | 0.00 | 0.00 | 0.00 | 40 | 1011.5 |
| 20260506124550 | 60 | 319 | 2.0 | 4.0 | 0.00 | 0.00 | 0.00 | 40 | 1011.6 |
| 20260506124044 | 61 | 330 | 2.0 | 4.0 | 0.00 | 0.00 | 0.00 | 40 | 1011.7 |
| 20260506123542 | 61 | 324 | 0.0 | 4.0 | 0.00 | 0.00 | 0.00 | 40 | 1011.6 |
| 20260506123055 | 60 | 338 | 1.0 | 5.0 | 0.00 | 0.00 | 0.00 | 41 | 1011.7 |
| 20260506122542 | 60 | 336 | 2.0 | 8.0 | 0.00 | 0.00 | 0.00 | 41 | 1011.8 |
| 20260506122042 | 60 | 37 | 1.0 | 8.0 | 0.00 | 0.00 | 0.00 | 42 | 1011.8 |
| 20260506121557 | 60 | 341 | 3.0 | 8.0 | 0.00 | 0.00 | 0.00 | 41 | 1011.8 |
| 20260506121047 | 60 | 351 | 2.0 | 9.0 | 0.00 | 0.00 | 0.00 | 40 | 1011.8 |
| 20260506120542 | 61 | 94 | 5.0 | 9.0 | 0.00 | 0.00 | 0.00 | 39 | 1011.8 |
| 20260506120054 | 62 | 30 | 1.0 | 5.0 | 0.00 | 0.00 | 0.00 | 40 | 1011.9 |
| 20260506115547 | 60 | 74 | 1.0 | 4.0 | 0.00 | 0.00 | 0.00 | 41 | 1011.9 |
| 20260506115043 | 60 | 39 | 1.0 | 5.0 | 0.00 | 0.00 | 0.00 | 42 | 1012.0 |
| 20260506114553 | 60 | 2 | 0.0 | 5.0 | 0.00 | 0.00 | 0.00 | 41 | 1012.1 |
| 20260506114045 | 60 | 41 | 2.0 | 8.0 | 0.00 | 0.00 | 0.00 | 42 | 1012.1 |
| 20260506113543 | 60 | 331 | 2.0 | 8.0 | 0.00 | 0.00 | 0.00 | 41 | 1012.0 |
| 20260506113049 | 61 | 330 | 0.0 | 3.0 | 0.00 | 0.00 | 0.00 | 43 | 1012.1 |
| 20260506112545 | 60 | 0 | 1.0 | 3.0 | 0.00 | 0.00 | 0.00 | 42 | 1012.2 |
| 20260506112044 | 60 | 0 | 1.0 | 6.0 | 0.00 | 0.00 | 0.00 | 43 | 1012.3 |
| 20260506111552 | 59 | 288 | 0.0 | 7.0 | 0.00 | 0.00 | 0.00 | 43 | 1012.3 |
| 20260506111043 | 59 | 299 | 3.0 | 7.0 | 0.00 | 0.00 | 0.00 | 43 | 1012.3 |
| 20260506110543 | 60 | 322 | 1.0 | 9.0 | 0.00 | 0.00 | 0.00 | 42 | 1012.3 |
| 20260506110046 | 60 | 360 | 2.0 | 9.0 | 0.00 | 0.00 | 0.00 | 43 | 1012.3 |
| 20260506105544 | 60 | 24 | 0.0 | 8.0 | 0.00 | 0.00 | 0.00 | 44 | 1012.4 |
| 20260506105044 | 58 | 301 | 3.0 | 8.0 | 0.00 | 0.00 | 0.00 | 45 | 1012.4 |
| 20260506104554 | 57 | 55 | 2.0 | 6.0 | 0.00 | 0.00 | 0.00 | 45 | 1012.4 |
| 20260506104043 | 58 | 37 | 0.0 | 4.0 | 0.00 | 0.00 | 0.00 | 46 | 1012.5 |
| 20260506103544 | 58 | 235 | 1.0 | 6.0 | 0.00 | 0.00 | 0.00 | 45 | 1012.5 |
| 20260506103052 | 58 | 236 | 2.0 | 7.0 | 0.00 | 0.00 | 0.00 | 46 | 1012.7 |
| 20260506102544 | 58 | 0 | 2.0 | 7.0 | 0.00 | 0.00 | 0.00 | 46 | 1012.7 |
| 20260506102043 | 58 | 0 | 1.0 | 5.0 | 0.00 | 0.00 | 0.00 | 45 | 1012.8 |
| 20260506101549 | 58 | 133 | 1.0 | 5.0 | 0.00 | 0.00 | 0.00 | 46 | 1012.8 |
| 20260506101043 | 58 | 97 | 1.0 | 6.0 | 0.00 | 0.00 | 0.00 | 45 | 1012.9 |
| 20260506100544 | 59 | 136 | 3.0 | 8.0 | 0.00 | 0.00 | 0.00 | 46 | 1013.0 |
| 20260506100103 | 58 | 113 | 2.0 | 10.0 | 0.00 | 0.00 | 0.00 | 47 | 1013.0 |
| 20260506095544 | 57 | 22 | 4.0 | 11.0 | 0.00 | 0.00 | 0.00 | 49 | 1013.0 |
| 20260506095044 | 57 | 359 | 6.0 | 11.0 | 0.00 | 0.00 | 0.00 | 48 | 1012.8 |
| 20260506094549 | 57 | 12 | 1.0 | 8.0 | 0.00 | 0.00 | 0.00 | 48 | 1012.7 |
| 20260506094042 | 56 | 182 | 2.0 | 10.0 | 0.00 | 0.00 | 0.00 | 49 | 1012.6 |
| 20260506093543 | 56 | 197 | 1.0 | 10.0 | 0.00 | 0.00 | 0.00 | 50 | 1012.5 |
| 20260506093048 | 56 | 193 | 3.0 | 10.0 | 0.00 | 0.00 | 0.00 | 51 | 1012.6 |